Regional Weather Roundup
Issued by NWS Grand Forks, ND

Home | Current Version | Previous Version | Text Only | Print | Product List | Glossary Off
Versions: 1 2 3 4 5 6 7 8 9 10 11 12 13 14 15 16 17 18 19 20 21 22 23 24 25 26 27 28 29 30 31 32 33 34 35 36 37 38 39 40 41 42 43 44 45 46 47 48 49 50

000
ASUS43 KFGF 031410
RWRFGF
PRAIRIE TO PINES  WEATHER ROUNDUP
NATIONAL WEATHER SERVICE EASTERN NORTH DAKOTA/GRAND FORKS ND
800 AM CST TUE MAR 03 2015

 **SATELLITE DATA USED TO AUGMENT SKY COVER AT AUTOMATED STATIONS**
 *****  WEATHER ACROSS EASTERN NORTH DAKOTA  *****

CITY           SKY/WX    TMP DP  RH WIND       PRES   REMARKS
GRAND FORKS    FLURRIES  12   4  70 NW23G31   29.82R WCI  -7
GRAND FRKS AFB CLOUDY    10   3  72 NW20G30   29.82R WCI  -8
GRAND FRKS NWS   N/A     12 N/A N/A NW28        N/A  WCI  -9
DEVILS LAKE    PTCLDY     3  -6  66 NW20G29   29.87R WCI -18
FARGO          CLOUDY    16   9  74 NW21G30   29.80R WCI  -1
WAHPETON ARPT  CLOUDY    18  14  86 NW20G31   29.78R VSB 3/4 WCI   1
$$

 ***** WEATHER ACROSS CENTRAL AND WESTERN NORTH DAKOTA  *****

CITY           SKY/WX    TMP DP  RH WIND       PRES   REMARKS
BISMARCK       PTCLDY     7  -2  66 NW16G28   30.00R WCI -11
MINOT          CLEAR      1  -8  66 W23       29.99R WCI -22
JAMESTOWN      LGT SNOW   8   2  76 NW32G39   29.86R WCI -16
MINOT AFB      CLEAR     -1  -7  73 NW24      29.98R WCI -25
GARRISON         N/A      1  -5  75 NW22      29.99R WCI -21
WILLISTON      CLOUDY     3  -4  72 NW13      30.10R WCI -14
DICKINSON      PTCLDY     4  -6  63 NW22G29   29.98R WCI -18
HETTINGER      CLOUDY     7  -6  55 NW20G28   30.00R WCI -13
$$

 *****  OTHER AIRPORT OBSERVATIONS IN OUR AREA  *****

CITY           SKY/WX    TMP DP  RH WIND       PRES   REMARKS
WALHALLA         N/A      7   1  78 NW23G30   29.85R FOG     WCI -14
GRAFTON AIRPOR NOT AVBL
VALLEY CITY AR FLURRIES  10   5  79 NW26G35   29.83R WCI -11
CANDO          CLOUDY     1  -4  78 NW16      29.89R WCI -18
CAVALIER APRT  LGT SNOW   9   3  78 NW17G26   29.85R VSB 1   WCI -10
GWINNER        CLOUDY    18  12  79 NW24G30   29.83R WCI   0
SHEYENNE NWR     N/A     16   8  70 N18       29.95S WCI   0
ROLLA          PTSUNNY    0  -8  71 NW24G36   29.86R WCI -24
 ***** THE ABOVE OBSERVATIONS ARE NON NWS ARE NOT QUALITY
       CONTROLLED AND MAY MIS-REPORT RAIN FOR SNOW...
$$

  *****  WEATHER ACROSS NORTHERN MINNESOTA  *****

CITY           SKY/WX    TMP DP  RH WIND       PRES   REMARKS
FLAG ISLAND    LGT SNOW  16  10  79 NW23G32   29.64R WCI  -2
WARROAD        LGT SNOW  16  10  79 NW21G31   29.68R WCI  -2
ROSEAU         LGT SNOW  12   7  79 NW23      29.70R WCI  -7
HALLOCK        NOT AVBL
THF RVR FALLS  CLOUDY    12   7  79 NW25      29.73R WCI  -8
BAUDETTE       LGT SNOW  20  15  81 NW23      29.60F WCI   3
WASKISH        FLURRIES  19  18  93 W13G20    29.62R WCI   7
CROOKSTON      CLOUDY    14   7  73 N24G31    29.79R WCI  -5
STEPHEN NDAWN    N/A     10   7  85 N20         N/A  WCI  -8
GREENBUSH NDAW   N/A     10   5  79 NW16        N/A  WCI  -7
$$
  *****  WEATHER ACROSS CENTRAL AND WEST MINNESOTA  *****

CITY           SKY/WX    TMP DP  RH WIND       PRES   REMARKS
FOSSTON        CLOUDY    12   7  79 NW18G28   29.71R HAZE    WCI  -5
BEMIDJI        LGT SNOW  19  17  88 NW20      29.64R WCI   4
PARK RAPIDS    LGT SNOW  24  21  88 W15       29.62S VSB 1   WCI  11
ELBOW LAKE     LGT SNOW  18  15  91 NW21G30   29.70R VSB 1   WCI   1
WADENA         LGT SNOW  21  19  93 W7        29.64F VSB 1   WCI  13
DETROIT LAKES  LGT SNOW  19  18  93 N17G25    29.71R VSB 1   WCI   4
MOORHEAD       MIX PCPN  18  14  86 NW22G29   29.79R WCI   0
FERGUS FALLS   LGT SNOW  18  12  79 N20G32    29.76R WCI   1
MORRIS MN      LGT SNOW  21  18  86 NW23G29   29.71R VSB 3/4 WCI   5
STAPLES        SNOW      19  18  93 SW3       29.65S VSB 1/2
$$
  *****  WEATHER ELSEWHERE ACROSS MINNESOTA  *****

CITY           SKY/WX    TMP DP  RH WIND       PRES   REMARKS
DULUTH         LGT SNOW  19  15  84 S12       29.62F VSB 3/4 WCI   7
INTRNTL FALLS  LGT SNOW  23  19  85 W7        29.56F VSB 3/4 WCI  15
ELY            LGT SNOW  19  16  86 SW7       29.59F WCI  10
CLOQUET        LGT SNOW  19  16  86 S6        29.64F VSB 1   WCI  11
WHEATON        LGT SNOW  16  14  93 NW22G32   29.78R VSB 1   WCI  -2
BRAINERD       SNOW      19  17  92 S9        29.65S VSB 1/2 WCI   8
HIBBING        SNOW      19  16  88 S6        29.61F VSB 1/2 WCI  11
ALEXANDRIA     SNOW      21  19  92 SW12      29.66S VSB 1/2 WCI   9
SAINT CLOUD    SNOW      20  17  88 S7        29.68S VSB 1/4 WCI  11
MINNEAPOLIS    LGT SNOW  21  17  84 S3        29.72R VSB 3/4
$$

  *****  WEATHER ACROSS SOUTH DAKOTA  *****

CITY           SKY/WX    TMP DP  RH WIND       PRES   REMARKS
SIOUX FALLS    LGT SNOW  25  22  88 W5        29.70R VSB 1   WCI  19
BROOKINGS      NOT AVBL
WATERTOWN      LGT SNOW  19  15  84 N24G31    29.71R VSB 3/4 WCI   2
HURON          LGT SNOW  18  15  88 N32G44    29.82R VSB 3/4 WCI  -2
SISSETON         N/A     18  16  92 N24G32    29.77R WCI   0
ABERDEEN       LGT SNOW  17   9  70 N25G32    29.87R WCI  -1
MITCHELL       SNOW      21  18  88 N31G38    29.79R VSB 1/2 WCI   2
PIERRE         CLOUDY    14   7  73 N26G38    29.94R BLWGSNOWWCI  -6
MOBRIDGE       CLOUDY    12   0  58 N30G37    29.93R WCI -10
RAPID CITY     CLOUDY    13   7  77 NW32G40   29.96S WCI  -9
$$

  *****  SOME WEATHER IN NEARBY STATES *****

CITY           SKY/WX    TMP DP  RH WIND       PRES   REMARKS
GLASGOW MT     PTCLDY     4  -2  76 W14       30.15F WCI -14
GREAT FALLS MT CLEAR     -5  -8  87 SW7       30.19S WCI -19
CHEYENNE WY    LGT SNOW  14   8  77 N24G32    29.77R WCI  -5
SCOTTSBLUFF NE CLOUDY    19  12  74 N17       29.90R WCI   4
OMAHA NE       FRZ DRZL  32  31  96 NW3       29.68R VSB 1
DES MOINES IA  FRZ DRZL  32  30  92 S9        29.67S VSB 1   WCI  24
DAVENPORT IA   CLOUDY    29  26  89 S21       29.74F FOG     WCI  16
CHICAGO IL     FRZ RAIN  28  26  92 S17G25    29.84F FOG     WCI  16
EAU CLAIRE WI  LGT SNOW  22  16  78 SE5       29.70S WCI  16
LA CROSSE WI   CLOUDY    25  20  81 SE9       29.72F WCI  15
$$

  *****  SOME NATIONAL WEATHER *****

CITY           SKY/WX    TMP DP  RH WIND       PRES   REMARKS
LA GUARDIA NY  CLOUDY    27   9  46 CALM      30.46R
RALEIGH NC     CLOUDY    37  20  50 E7G18     30.41R
ATLANTA GA     LGT RAIN  52  50  93 E9        30.24S VSB 1/2
NEW ORLEANS LA FOG       68  66  93 SE8       30.13S VSB 1/4
OKLAHOMA CITY  CLOUDY    41  37  86 S13       29.91R
ALBUQUERQUE NM CLOUDY    41  30  65 NW7       29.93S
SALT LAKE CITY CLOUDY    36  31  82 S3        29.77F
LOS ANGELES CA PTCLDY    49  43  80 N5        29.94R
BOISE ID       CLEAR     29  19  66 NW10      29.97R WCI  20
SEATTLE WA     CLEAR     34  29  82 SE8       30.22R
$$

*** WEATHER ACROSS MANITOBA...SASKATCHEWAN AND ONTARIO ***
                ***ONTARIO***

CITY           SKY/WX    TMP DP  RH WIND       PRES   REMARKS
GERALDTON      LGT SNOW  18  14  86 S13       29.61F VSB 1   WCI   4
THUNDER BAY    LGT SNOW  19  18  93 NE5       29.66F VSB 1   WCI  13
SIOUX LOOKOUT  LGT SNOW  21  16  79 SW9       29.48F WCI  11
TORONTO        CLOUDY    21  16  79 S3        30.22F
BIG TROUT LK   LGT SNOW  14  12  92 S7        29.37F WCI   4
PICKLE LAKE    LGT SNOW  18  14  86 SW10G20   29.41F DRFTSNOWWCI   6
DRYDEN         LGT SNOW  21  19  93 SW13      29.49F WCI   9
KENORA         FLURRIES  10   3  72 NW20G33   29.62R WCI  -8
$$
                *** MANITOBA***

CITY           SKY/WX    TMP DP  RH WIND       PRES   REMARKS
BRANDON        PTCLDY    -2 -11  65 NW21G28   29.90R WCI -25
DAUPHIN        CLEAR     -2 -11  65 W13       29.89S WCI -21
ISLAND LAKE    FLURRIES  -2  -8  78 NW14G21   29.54R WCI -21
PILOT MOUND      N/A      0  -6  78 NW22G29     N/A  WCI -23
THE PAS        MOCLDY    -9 -17  70 NW23G31   29.87F WCI -36
THOMPSON       FLURRIES -11 -18  70 NW13G21   29.70F WCI -32
WINNIPEG       MOCLDY     3  -2  78 NW20      29.83R WCI -18
LYNN LAKE      LGT SNOW -18 -26  69 NW14G20   29.82S WCI -42
CHURCHILL      CLOUDY    -9 -17  70 NE20      29.88S WCI -34
GILLAM         SNOW      -4  -9  77 N21       29.57S VSB 1/2 WCI -28
$$
                ***SASKATCHEWAN***

CITY           SKY/WX    TMP DP  RH WIND       PRES   REMARKS
ESTEVAN        PTCLDY    -6 -11  77 W18       30.02S WCI -29
KINDERSLEY     PTCLDY    -8 -15  71 W12       30.15F WCI -27
LLOYDMINSTER   PTCLDY    -9 -17  70 W13       30.10F WCI -30
PRINCE ALBERT  NOT AVBL
REGINA         CLEAR     -8 -13  77 NW18      30.06R WCI -31
YORKTON        CLEAR     -8 -15  71 NW20      29.93S WCI -32
N. BATTLEFORD  MOCLDY    -6 -13  71 W13G18    30.14F WCI -25
LA RONGE       PTCLDY   -13 -20  70 NW9G20    30.02S WCI -31
SASKATOON      PTCLDY    -9 -17  70 W13       30.11F WCI -30
SWIFT CURRENT  MOCLDY    -4  -8  84 NW18G24   30.08S WCI -26
$$
NOTE: THESE ARE AUTOMATED STATIONS WITH LIMITED QUALITY CONTROL
      "FAIR" INDICATES FEW OR NO CLOUDS BELOW 12,000 FEET WITH NO
      SIGNIFICANT WEATHER AND/OR OBSTRUCTIONS TO VISIBILITY.
      SKY/WX - SKY CONDITION AND SIGNIFICANT WEATHER.
      TMP - AIR TEMPERATURE.    DP   - DEWPOINT TEMPERATURE.
      RH  - RELATIVE HUMIDITY.  PRES - PRESSURE.
      HX  - HEAT INDEX.         WCI  - WIND CHILL INDEX.
$



USA.gov is the U.S. government's official web portal to all federal, state and local government web resources and services.